FW2458 Weather Reports


time (UTC)temp
C
wind
direction
speed
KPH
gust
KPH
rain 1hr
cm
rain 24hr
cm
rain mn
cm
humidity
%
barometer
mb
20260505122112 16 198 0.0 4.8 0.00 0.00 0.00 77 1010.5
20260505121602 16 194 0.0 4.8 0.00 0.00 0.00 79 1010.4
20260505121056 15 180 0.0 4.8 0.00 0.00 0.00 81 1010.5
20260505120550 15 175 0.0 4.8 0.00 0.00 0.00 82 1010.7
20260505120258 14 175 0.0 4.8 0.00 0.00 0.00 84 1010.7
20260505115547 13 240 0.0 4.8 0.00 0.00 0.00 85 1010.7
20260505115026 13 259 0.0 3.2 0.00 0.00 0.00 86 1010.7
20260505114526 13 261 0.0 6.4 0.00 0.00 0.00 85 1010.7
20260505114029 13 260 1.6 6.4 0.00 0.00 0.00 86 1010.7
20260505113753 13 262 1.6 6.4 0.00 0.00 0.00 86 1010.6
20260505113027 12 42 0.0 6.4 0.00 0.00 0.00 86 1010.6
20260505112526 12 140 0.0 1.6 0.00 0.00 0.00 87 1010.6
20260505112024 12 193 0.0 3.2 0.00 0.00 0.00 88 1010.4
20260505111535 12 193 0.0 3.2 0.00 0.00 0.00 88 1010.4
20260505111021 12 193 0.0 3.2 0.00 0.00 0.00 88 1010.3
20260505110532 12 193 0.0 3.2 0.00 0.00 0.00 89 1010.2
20260505102001 10 193 0.0 0.0 0.00 0.00 0.00 89 1010.5
20260505101459 10 194 0.0 0.0 0.00 0.00 0.00 89 1010.6
20260505100959 10 194 0.0 0.0 0.00 0.00 0.00 89 1010.3
20260505100719 10 194 0.0 0.0 0.00 0.00 0.00 89 1010.2
20260505100220 9 194 0.0 0.0 0.00 0.00 0.00 89 1010.1
20260505095456 9 194 0.0 0.0 0.00 0.00 0.00 88 1010.2
20260505094956 9 194 0.0 0.0 0.00 0.00 0.00 87 1010.1
20260505094507 9 194 0.0 0.0 0.00 0.00 0.00 87 1010.1
20260505093951 9 194 0.0 0.0 0.00 0.00 0.00 87 1010.0
20260505093450 9 194 0.0 0.0 0.00 0.00 0.00 86 1010.1
20260505092948 9 194 0.0 0.0 0.00 0.00 0.00 85 1010.0
20260505092446 10 194 0.0 0.0 0.00 0.00 0.00 85 1009.8
20260505091945 10 194 0.0 0.0 0.00 0.00 0.00 85 1009.9
20260505091443 10 194 0.0 0.0 0.00 0.00 0.00 86 1009.8
20260505090944 10 194 0.0 0.0 0.00 0.00 0.00 86 1009.8
20260505090445 10 194 0.0 0.0 0.00 0.00 0.00 86 1009.7
20260505085939 10 194 0.0 0.0 0.00 0.00 0.00 86 1009.7
20260505085435 10 194 0.0 0.0 0.00 0.00 0.00 86 1009.6
20260505085157 10 194 0.0 0.0 0.00 0.00 0.00 86 1009.6
20260505084433 10 194 0.0 0.0 0.00 0.00 0.00 86 1009.6
20260505083931 10 194 0.0 0.0 0.00 0.00 0.00 86 1009.7
20260505083429 10 194 0.0 0.0 0.00 0.00 0.00 86 1009.8
20260505082928 10 194 0.0 0.0 0.00 0.00 0.00 86 1009.8
20260505082425 10 194 0.0 0.0 0.00 0.00 0.00 85 1009.7
20260505081932 10 194 0.0 0.0 0.00 0.00 0.00 82 1009.7
20260505081927 10 194 0.0 0.0 0.00 0.00 0.00 84 1009.7
20260505080925 10 194 0.0 0.0 0.00 0.00 0.00 82 1009.7
20260505080425 10 194 0.0 0.0 0.00 0.00 0.00 82 1009.7
20260505075926 10 194 0.0 0.0 0.00 0.00 0.00 82 1009.7
20260505075426 11 194 0.0 0.0 0.00 0.00 0.00 82 1009.7
20260505074926 11 194 0.0 0.0 0.00 0.00 0.00 82 1009.7
20260505074426 11 194 0.0 0.0 0.00 0.00 0.00 83 1009.7
20260505073925 11 194 0.0 0.0 0.00 0.00 0.00 83 1009.7
20260505073425 11 194 0.0 0.0 0.00 0.00 0.00 83 1009.7
20260505072925 10 194 0.0 0.0 0.00 0.00 0.00 83 1009.6
20260505072425 10 194 0.0 0.0 0.00 0.00 0.00 83 1009.6
20260505071927 10 194 0.0 0.0 0.00 0.00 0.00 83 1009.6
20260505071423 10 194 0.0 0.0 0.00 0.00 0.00 83 1009.7
20260505070922 10 194 0.0 0.0 0.00 0.00 0.00 83 1009.6
20260505070640 10 194 0.0 0.0 0.00 0.00 0.00 83 1009.6
20260505065922 10 194 0.0 0.0 0.00 0.00 0.00 83 1009.6
20260505065423 10 194 0.0 0.0 0.00 0.00 0.00 82 1009.7
20260505065144 10 194 0.0 0.0 0.00 0.00 0.00 82 1009.8
20260505064647 10 194 0.0 0.0 0.00 0.00 0.00 81 1009.7
20260505063922 10 194 0.0 0.0 0.00 0.00 0.00 81 1009.8
20260505063420 10 194 0.0 0.0 0.00 0.00 0.00 80 1009.7
20260505062921 10 194 0.0 0.0 0.00 0.00 0.00 79 1009.8
20260505062422 10 194 0.0 0.0 0.00 0.00 0.00 79 1009.8
20260505061922 11 194 0.0 0.0 0.00 0.00 0.00 79 1009.9
20260505061421 11 194 0.0 0.0 0.00 0.00 0.00 79 1009.9
20260505060921 11 194 0.0 0.0 0.00 0.00 0.00 80 1009.8
20260505060422 11 194 0.0 0.0 0.00 0.00 0.00 80 1009.8
20260505055922 11 194 0.0 0.0 0.00 0.00 0.00 79 1009.9
20260505055417 11 194 0.0 0.0 0.00 0.00 0.00 78 1009.9
20260505054917 11 194 0.0 0.0 0.00 0.00 0.00 78 1009.9
20260505054422 11 194 0.0 0.0 0.00 0.00 0.00 78 1010.0
20260505053918 11 194 0.0 0.0 0.00 0.00 0.00 78 1009.9
20260505053414 11 194 0.0 0.0 0.00 0.00 0.00 78 1010.0
20260505052913 11 194 0.0 0.0 0.00 0.00 0.00 78 1010.1
20260505052412 10 194 0.0 0.0 0.00 0.00 0.00 78 1010.1
20260505051910 10 194 0.0 0.0 0.00 0.00 0.00 78 1010.2
20260505051407 10 194 0.0 0.0 0.00 0.00 0.00 78 1010.1
20260505050906 10 194 0.0 0.0 0.00 0.00 0.00 78 1010.2
20260505050403 10 194 0.0 0.0 0.00 0.00 0.00 77 1010.2
20260505041434 11 194 0.0 0.0 0.00 0.00 0.00 72 1010.4
20260505040342 11 194 0.0 0.0 0.00 0.00 0.00 71 1010.4
20260505040109 11 194 0.0 0.0 0.00 0.00 0.00 71 1010.3
20260505035341 11 194 0.0 0.0 0.00 0.00 0.00 71 1010.4
20260505035110 11 194 0.0 0.0 0.00 0.00 0.00 71 1010.3
20260505034832 11 194 0.0 0.0 0.00 0.00 0.00 71 1010.4
20260505034506 11 194 0.0 0.0 0.00 0.00 0.00 70 1010.5
20260505033341 11 194 0.0 0.0 0.00 0.00 0.00 70 1010.5
20260505033107 11 194 0.0 0.0 0.00 0.00 0.00 69 1010.6
20260505032342 12 194 0.0 0.0 0.00 0.00 0.00 69 1010.5
20260505031843 12 194 0.0 0.0 0.00 0.00 0.00 68 1010.5
20260505031337 12 194 0.0 0.0 0.00 0.00 0.00 67 1010.6
20260505030831 12 194 0.0 0.0 0.00 0.00 0.00 66 1010.5
20260505030321 12 194 0.0 0.0 0.00 0.00 0.00 66 1010.5
20260505025815 12 194 0.0 0.0 0.00 0.00 0.00 66 1010.6
20260505025309 13 194 0.0 0.0 0.00 0.00 0.00 66 1010.6
20260505024759 13 194 0.0 0.0 0.00 0.00 0.00 65 1010.6
20260505024253 13 194 0.0 0.0 0.00 0.00 0.00 65 1010.6
20260505023747 13 194 0.0 0.0 0.00 0.00 0.00 65 1010.6
20260505023236 13 194 0.0 0.0 0.00 0.00 0.00 64 1010.7
20260505022731 13 194 0.0 0.0 0.00 0.00 0.00 63 1010.6
20260505022225 13 194 0.0 0.0 0.00 0.00 0.00 63 1010.6
20260505021714 13 194 0.0 0.0 0.00 0.00 0.00 63 1010.6
20260505021210 13 194 0.0 0.0 0.00 0.00 0.00 62 1010.6
20260505020702 13 194 0.0 0.0 0.00 0.00 0.00 61 1010.7
20260505020153 14 194 0.0 0.0 0.00 0.00 0.00 60 1010.7
20260505015647 14 194 0.0 0.0 0.00 0.00 0.00 59 1010.7
20260505015141 15 194 0.0 0.0 0.00 0.00 0.00 59 1010.5
20260505014859 15 194 0.0 0.0 0.00 0.00 0.00 59 1010.5
20260505014125 15 194 0.0 0.0 0.00 0.00 0.00 58 1010.5
20260505013619 15 194 0.0 0.0 0.00 0.00 0.00 58 1010.4
20260505013109 15 194 0.0 0.0 0.00 0.00 0.00 57 1010.5
20260505012603 15 194 0.0 0.0 0.00 0.00 0.00 55 1010.4
20260505012057 16 194 0.0 0.0 0.00 0.00 0.00 55 1010.3
20260505011547 16 194 0.0 0.0 0.00 0.00 0.00 54 1010.2
20260505011042 16 194 0.0 0.0 0.00 0.00 0.00 53 1010.2
20260505010535 16 194 0.0 0.0 0.00 0.00 0.00 53 1010.1
20260505010025 17 194 0.0 0.0 0.00 0.00 0.00 52 1010.0
20260505005518 17 194 0.0 0.0 0.00 0.00 0.00 51 1010.1
20260505005021 17 192 0.0 0.0 0.00 0.00 0.00 50 1009.9
20260505004503 17 192 0.0 1.6 0.00 0.00 0.00 50 1009.8
20260505003957 17 192 0.0 1.6 0.00 0.00 0.00 49 1009.8
20260505003451 18 192 0.0 1.6 0.00 0.00 0.00 48 1009.6
20260505002941 18 193 0.0 4.8 0.00 0.00 0.00 48 1009.7
20260505002435 18 199 0.0 4.8 0.00 0.00 0.00 47 1009.6
20260505002153 18 199 1.6 6.4 0.00 0.00 0.00 46 1009.4
20260505001419 18 229 0.0 6.4 0.00 0.00 0.00 47 1009.3
20260505000913 18 249 0.0 6.4 0.00 0.00 0.00 46 1009.4
20260505000407 19 45 1.6 6.4 0.00 0.00 0.00 45 1009.2
20260504235857 19 244 1.6 6.4 0.00 0.00 0.00 44 1009.1
20260504235351 19 182 1.6 4.8 0.00 0.00 0.00 44 1009.1
20260504235305 20 163 1.6 11.3 0.00 0.00 0.00 43 1008.9
20260504234934 20 163 1.6 6.4 0.00 0.00 0.00 44 1009.0
20260504233830 20 211 1.6 11.3 0.00 0.00 0.00 42 1008.9
20260504233324 20 74 1.6 11.3 0.00 0.00 0.00 42 1008.8
20260504232813 20 201 1.6 11.3 0.00 0.00 0.00 42 1008.8
20260504232307 20 84 1.6 6.4 0.00 0.00 0.00 42 1008.8
20260504232248 20 32 1.6 6.4 0.00 0.00 0.00 42 1008.7
20260504231251 21 5 1.6 9.7 0.00 0.00 0.00 41 1008.6
20260504231023 21 307 1.6 9.7 0.00 0.00 0.00 41 1008.6
20260504230238 21 222 1.6 9.7 0.00 0.00 0.00 40 1008.5
20260504225729 21 211 3.2 9.7 0.00 0.00 0.00 40 1008.6
20260504225223 21 148 3.2 14.5 0.00 0.00 0.00 40 1008.5
20260504224718 21 36 1.6 14.5 0.00 0.00 0.00 40 1008.5
20260504224209 21 175 3.2 14.5 0.00 0.00 0.00 39 1008.6
20260504223701 21 109 3.2 14.5 0.00 0.00 0.00 39 1008.5
20260504223155 21 145 3.2 14.5 0.00 0.00 0.00 40 1008.5
20260504222646 21 259 3.2 14.5 0.00 0.00 0.00 39 1008.6
20260504222151 21 38 3.2 16.1 0.00 0.00 0.00 39 1008.6
20260504222125 21 204 3.2 16.1 0.00 0.00 0.00 38 1008.6
20260504221122 21 123 3.2 14.5 0.00 0.00 0.00 38 1008.6
20260504220616 21 211 3.2 11.3 0.00 0.00 0.00 39 1008.6
20260504220111 21 221 3.2 16.1 0.00 0.00 0.00 38 1008.7
20260504215600 21 209 3.2 16.1 0.00 0.00 0.00 38 1008.7
20260504215100 21 36 3.2 16.1 0.00 0.00 0.00 38 1008.7
20260504214816 21 66 3.2 16.1 0.00 0.00 0.00 38 1008.7
20260504214101 21 121 3.2 12.9 0.00 0.00 0.00 38 1008.7
20260504213557 21 29 3.2 14.5 0.00 0.00 0.00 38 1008.8
20260504213055 21 274 3.2 14.5 0.00 0.00 0.00 38 1008.8
20260504212817 21 96 3.2 14.5 0.00 0.00 0.00 39 1008.9
20260504212319 21 209 3.2 14.5 0.00 0.00 0.00 37 1008.9
20260504211555 22 72 3.2 17.7 0.00 0.00 0.00 38 1008.9
20260504211054 22 76 3.2 17.7 0.00 0.00 0.00 37 1009.0
20260504210819 22 240 3.2 16.1 0.00 0.00 0.00 39 1009.1
20260504210335 21 28 3.2 16.1 0.00 0.00 0.00 38 1009.1
20260504205552 21 177 3.2 16.1 0.00 0.00 0.00 38 1009.0
20260504205053 21 141 3.2 16.1 0.00 0.00 0.00 38 1009.1
20260504204601 21 173 3.2 16.1 0.00 0.00 0.00 36 1008.9
20260504204553 21 272 3.2 12.9 0.00 0.00 0.00 37 1008.9
20260504203552 22 194 3.2 16.1 0.00 0.00 0.00 37 1009.0
20260504203311 22 213 3.2 16.1 0.00 0.00 0.00 36 1008.9
20260504202550 22 200 3.2 16.1 0.00 0.00 0.00 37 1008.9
20260504202310 21 68 3.2 12.9 0.00 0.00 0.00 37 1009.0
20260504201811 22 38 3.2 12.9 0.00 0.00 0.00 36 1009.0
20260504201049 22 65 3.2 16.1 0.00 0.00 0.00 36 1009.1
20260504200549 22 63 4.8 16.1 0.00 0.00 0.00 35 1009.1
20260504195550 22 31 4.8 17.7 0.00 0.00 0.00 35 1009.0
20260504195310 22 126 4.8 17.7 0.00 0.00 0.00 36 1009.0
20260504194549 22 62 3.2 16.1 0.00 0.00 0.00 35 1009.2
20260504194304 22 73 3.2 16.1 0.00 0.00 0.00 37 1009.1
20260504193549 22 113 3.2 17.7 0.00 0.00 0.00 36 1009.2
20260504193050 22 82 3.2 17.7 0.00 0.00 0.00 35 1009.4
20260504192551 22 259 4.8 17.7 0.00 0.00 0.00 36 1009.3
20260504192048 22 239 4.8 17.7 0.00 0.00 0.00 37 1009.3
20260504191548 22 231 4.8 17.7 0.00 0.00 0.00 34 1009.2
20260504191049 22 183 3.2 17.7 0.00 0.00 0.00 35 1009.4
20260504190548 22 48 3.2 11.3 0.00 0.00 0.00 38 1009.5
20260504190048 22 86 3.2 11.3 0.00 0.00 0.00 38 1009.6
20260504185548 22 42 3.2 16.1 0.00 0.00 0.00 38 1009.5
20260504185051 22 53 4.8 16.1 0.00 0.00 0.00 36 1009.5
20260504184550 22 68 4.8 17.7 0.00 0.00 0.00 38 1009.6
20260504184047 22 55 4.8 17.7 0.00 0.00 0.00 36 1009.7
20260504183913 22 202 4.8 16.1 0.00 0.00 0.00 38 1010.0
20260504183830 22 24 4.8 17.7 0.00 0.00 0.00 38 1009.9
20260504182547 22 34 4.8 17.7 0.00 0.00 0.00 39 1010.0
20260504182046 22 170 4.8 17.7 0.00 0.00 0.00 37 1009.9
20260504181548 22 232 3.2 17.7 0.00 0.00 0.00 39 1010.0
20260504181047 22 204 3.2 12.9 0.00 0.00 0.00 42 1010.1
20260504180547 22 34 3.2 16.1 0.00 0.00 0.00 39 1010.2
20260504180046 22 32 3.2 16.1 0.00 0.00 0.00 39 1010.2
20260504175546 21 32 3.2 16.1 0.00 0.00 0.00 38 1010.2
20260504175310 21 60 3.2 16.1 0.00 0.00 0.00 37 1010.2
20260504174544 21 75 3.2 14.5 0.00 0.00 0.00 39 1010.3
20260504174042 21 106 4.8 16.1 0.00 0.00 0.00 38 1010.5
20260504173543 21 58 4.8 16.1 0.00 0.00 0.00 38 1010.6
20260504173041 21 211 3.2 14.5 0.00 0.00 0.00 43 1010.6
20260504172749 21 28 4.8 14.5 0.00 0.00 0.00 41 1010.8
20260504172639 21 291 4.8 14.5 0.00 0.00 0.00 38 1010.8
20260504172210 21 192 3.2 14.5 0.00 0.00 0.00 37 1010.8
20260504171038 21 99 4.8 16.1 0.00 0.00 0.00 40 1010.8
20260504170807 21 231 4.8 16.1 0.00 0.00 0.00 38 1010.9
20260504170305 21 108 3.2 14.5 0.00 0.00 0.00 39 1011.0
20260504151011 19 130 3.2 16.1 0.00 0.00 0.00 41 1012.3
20260504150505 19 188 3.2 16.1 0.00 0.00 0.00 42 1012.3
20260504140844 17 33 3.2 9.7 0.00 0.00 0.00 42 1012.7
20260504140338 17 128 3.2 9.7 0.00 0.00 0.00 43 1012.8
20260504130545 15 134 3.2 11.3 0.00 0.00 0.00 48 1013.1